Lake D'Arbonne Weather Center

Moon Phase Calendar



Lake D'Arbonne Water Level
Online Cameras

 


      

Current Conditions in Farmerville
11/29/2020 6:41:16 AM

48°F
Feels Like 45
Rain
Humidity
93%
Pressure
30.03"
Wind
3.2 mph (E)
Dew Point
46°F
UV Index
0/10 (Low)
Visibility
5 mi

Hourly Forecast

Date & Time Sun, Nov 29
6:00 AM
Sun, Nov 29
7:00 AM
Sun, Nov 29
8:00 AM
Sun, Nov 29
9:00 AM
Sun, Nov 29
10:00 AM
Sun, Nov 29
11:00 AM
Sun, Nov 29
12:00 PM
Sun, Nov 29
1:00 PM
Sun, Nov 29
2:00 PM
Sun, Nov 29
3:00 PM
Sun, Nov 29
4:00 PM
Sun, Nov 29
5:00 PM
Sun, Nov 29
6:00 PM
Sun, Nov 29
7:00 PM
Sun, Nov 29
8:00 PM
Sun, Nov 29
9:00 PM
Sun, Nov 29
10:00 PM
Sun, Nov 29
11:00 PM
Mon, Nov 30
12:00 AM
Mon, Nov 30
1:00 AM
Mon, Nov 30
2:00 AM
Mon, Nov 30
3:00 AM
Mon, Nov 30
4:00 AM
Mon, Nov 30
5:00 AM
Mon, Nov 30
6:00 AM
Mon, Nov 30
7:00 AM
Mon, Nov 30
8:00 AM
Mon, Nov 30
9:00 AM
Mon, Nov 30
10:00 AM
Mon, Nov 30
11:00 AM
Mon, Nov 30
12:00 PM
Mon, Nov 30
1:00 PM
Mon, Nov 30
2:00 PM
Mon, Nov 30
3:00 PM
Mon, Nov 30
4:00 PM
Mon, Nov 30
5:00 PM
Mon, Nov 30
6:00 PM
Mon, Nov 30
7:00 PM
Mon, Nov 30
8:00 PM
Mon, Nov 30
9:00 PM
Mon, Nov 30
10:00 PM
Mon, Nov 30
11:00 PM
Tue, Dec 1
12:00 AM
Tue, Dec 1
1:00 AM
Tue, Dec 1
2:00 AM
Tue, Dec 1
3:00 AM
Tue, Dec 1
4:00 AM
Tue, Dec 1
5:00 AM
Condition
Rain

Rain

Rain

Rain

Rain

Rain

Rain

Rain

Rain

Clouds

Clouds

Clouds

Clouds

Clouds

Clouds

Clouds

Clouds

Clouds

Clouds

Clouds

Clouds

Clouds

Clouds

Clouds

Clouds

Clear

Clear

Clear

Clear

Clear

Clear

Clear

Clear

Clear

Clear

Clear

Clear

Clear

Clear

Clear

Clear

Clear

Clear

Clear

Clear

Clear

Clear

Clear
Temperature 48°F49°F50°F50°F50°F49°F49°F48°F48°F48°F48°F48°F47°F47°F46°F44°F43°F44°F46°F47°F46°F43°F42°F40°F38°F36°F36°F39°F41°F43°F45°F46°F47°F47°F46°F42°F39°F37°F36°F36°F35°F34°F33°F32°F31°F31°F31°F31°F
Feels Like 45°F47°F49°F47°F46°F45°F44°F42°F43°F42°F42°F42°F40°F40°F40°F38°F37°F38°F40°F39°F38°F34°F31°F30°F28°F26°F26°F28°F30°F32°F34°F36°F37°F37°F37°F35°F32°F31°F29°F28°F28°F27°F27°F26°F25°F25°F25°F25°F
Cloudiness 90%95%98%99%100%100%100%100%100%100%100%100%99%100%100%73%63%51%56%82%88%81%85%86%73%0%0%0%0%0%0%0%0%0%0%0%0%0%0%0%0%0%0%0%0%0%0%0%
Visibility 6 mi6 mi6 mi6 mi6 mi6 mi5 mi6 mi6 mi6 mi6 mi6 mi6 mi6 mi6 mi6 mi6 mi6 mi6 mi6 mi6 mi6 mi6 mi6 mi6 mi6 mi6 mi6 mi6 mi6 mi6 mi6 mi6 mi6 mi6 mi6 mi6 mi6 mi6 mi6 mi6 mi6 mi6 mi6 mi6 mi6 mi6 mi6 mi
Precipitation 97%85%96%100%96%100%100%87%84%84%84%76%76%17%0%0%0%0%0%0%0%0%0%0%0%0%0%0%0%0%0%0%0%0%0%0%0%0%0%0%0%0%0%0%0%0%0%0%
Humidity 93%94%96%96%96%96%96%95%93%93%92%91%91%90%87%89%91%91%88%86%82%80%72%71%77%81%77%69%63%57%54%51%49%49%52%62%70%74%77%79%82%84%87%89%90%90%90%90%
Dew Point 46°F48°F49°F49°F49°F49°F48°F47°F46°F46°F46°F46°F45°F44°F43°F41°F41°F41°F43°F43°F41°F38°F34°F31°F29°F26°F24°F23°F22°F21°F21°F21°F21°F21°F22°F24°F24°F24°F24°F24°F23°F23°F23°F22°F22°F22°F21°F21°F
Pressure 30.03"30"30"30"30"30"29.97"29.94"29.94"29.94"29.97"30"30.03"30.03"30.03"30.03"30.06"30.06"30.09"30.09"30.09"30.12"30.12"30.15"30.21"30.21"30.24"30.27"30.27"30.27"30.24"30.21"30.18"30.18"30.21"30.21"30.21"30.24"30.24"30.24"30.24"30.24"30.24"30.24"30.24"30.24"30.24"30.24"
Wind Speed 3.6 mph3.2 mph2.2 mph5.9 mph6.1 mph6.9 mph7.4 mph8.6 mph7.5 mph7.8 mph8 mph8.7 mph9.9 mph9.9 mph8.5 mph7.6 mph6.4 mph7.1 mph8.5 mph9.8 mph10.6 mph11.7 mph12.6 mph12.4 mph11 mph10.4 mph11.7 mph12.4 mph12 mph11.7 mph10.9 mph10.9 mph11 mph11 mph9.3 mph5.5 mph4.8 mph4.8 mph5.5 mph5.7 mph5.7 mph5.4 mph4.3 mph4.1 mph4.4 mph3.4 mph3.5 mph2.9 mph
Wind
Direction
81°
E
89°
E
355°
N
336°
NNW
341°
NNW
340°
NNW
345°
NNW
342°
NNW
333°
NNW
327°
NNW
321°
NW
324°
NW
323°
NW
329°
NNW
327°
NNW
312°
NW
301°
WNW
298°
WNW
306°
NW
315°
NW
323°
NW
325°
NW
332°
NNW
334°
NNW
328°
NNW
329°
NNW
329°
NNW
330°
NNW
327°
NNW
325°
NW
322°
NW
319°
NW
318°
NW
317°
NW
315°
NW
308°
NW
302°
WNW
297°
WNW
289°
WNW
291°
WNW
289°
WNW
287°
WNW
285°
WNW
273°
W
270°
W
272°
W
267°
W
257°
WSW

Daily Forecast

Date High Low Precip. Humidity
Today
Nov 29

Rain
50 °F
43 °F
100%
96%
Monday
Nov 30

Clear
47 °F
34 °F
0%
57%
Tuesday
Dec 1

Clear
54 °F
30 °F
0%
42%
Wednesday
Dec 2

Rain
53 °F
39 °F
96%
85%
Thursday
Dec 3

Rain
52 °F
42 °F
39%
48%
Friday
Dec 4

Clouds
52 °F
32 °F
0%
52%
Saturday
Dec 5

Clear
55 °F
33 °F
0%
41%
Sunday
Dec 6

Clear
58 °F
35 °F
0%
39%
Monday
Dec 7

Clear
60 °F
38 °F
0%
39%
Tuesday
Dec 8

Clear
64 °F
41 °F
0%
41%
Wednesday
Dec 9

Clear
68 °F
45 °F
0%
41%
Thursday
Dec 10

Clear
62 °F
44 °F
0%
34%
Friday
Dec 11

Clouds
73 °F
51 °F
0%
63%
Saturday
Dec 12

Clouds
65 °F
51 °F
1%
54%
Sunday
Dec 13

Rain
48 °F
44 °F
100%
97%
Monday
Dec 14

Rain
70 °F
50 °F
100%
92%


Temperature 8-14 Day Outlook



Precipitation 8-14 Day Outlook




Quick Links
Lake D'Arbonne News
Lake D'Arbonne Photos
Lake D'Arbonne Videos




About Us
Contact Us
Site Map
Search Site
Advertise With Us
   
DArbonne.LakesOnline.com
THE LAKE D'ARBONNE WEBSITE

Copyright 2020, Lakes Online
Privacy    |    Legal